Location: Fontevrault
(47.1823°N, 0.0493°E)
Time: 10:39:47
(UTC+00:00)

Cosmos 1726 Rocket - Pass Details

Date: 16 June 2021
Orbit: 602 x 630 km, 82.5° (Epoch: 28 July)

Event Time Altitude Azimuth Distance (km) Brightness Sun altitude
Rises 23:27:35 0° 345° (NNW) 2,934 8.7 -19.0°
Reaches altitude 10° 23:29:53 10° 340° (NNW) 2,020 7.4 -19.1°
Maximum altitude 23:34:12 48° 267° (W) 824 4.1 -19.2°
Enters shadow 23:35:38 35° 217° (SW) 1,028 4.3 -19.2°
